Time,TemperatureF,DewpointF,PressureIn,WindDirection,WindDirectionDegrees,WindSpeedMPH,WindSpeedGustMPH,Humidity,HourlyPrecipIn,Conditions,Clouds,dailyrainin,SolarRadiationWatts/m^2,SoftwareType,DateUTC
2013-12-16 00:12:00,32.0,32.0,-100.00,South,181,1.0,7.0,98,0.00,,,-99.99,0.000000,,2013-12-16 08:12:00,
2013-12-16 00:22:00,32.0,32.0,-100.00,South,181,1.0,7.0,98,0.00,,,-99.99,0.000000,,2013-12-16 08:22:00,
2013-12-16 00:32:00,32.0,32.0,-100.00,South,181,1.0,7.0,98,0.00,,,-99.99,0.000000,,2013-12-16 08:32:00,
2013-12-16 01:11:00,33.0,32.0,-100.00,South,182,3.0,6.0,98,0.00,,,0.00,0.000000,,2013-12-16 09:11:00,
2013-12-16 01:22:00,33.0,32.0,-100.00,South,182,3.0,6.0,98,0.00,,,0.00,0.000000,,2013-12-16 09:22:00,
2013-12-16 01:33:00,33.0,32.0,-100.00,South,182,3.0,6.0,98,0.00,,,0.00,0.000000,,2013-12-16 09:33:00,
2013-12-16 02:12:00,31.0,31.0,-100.00,South,181,5.0,11.0,98,0.00,,,0.00,0.000000,,2013-12-16 10:12:00,
2013-12-16 02:23:00,31.0,31.0,-100.00,South,181,5.0,11.0,98,0.00,,,0.00,0.000000,,2013-12-16 10:23:00,
2013-12-16 02:33:00,31.0,31.0,-100.00,South,181,5.0,11.0,98,0.00,,,0.00,0.000000,,2013-12-16 10:33:00,
2013-12-16 03:12:00,31.0,31.0,-100.00,South,179,4.0,7.0,98,0.00,,,0.00,0.000000,,2013-12-16 11:12:00,
2013-12-16 03:22:00,31.0,31.0,-100.00,South,179,4.0,7.0,98,0.00,,,0.00,0.000000,,2013-12-16 11:22:00,
2013-12-16 03:33:00,31.0,31.0,-100.00,South,179,4.0,7.0,98,0.00,,,0.00,0.000000,,2013-12-16 11:33:00,
2013-12-16 04:12:00,31.0,31.0,-100.00,South,181,1.0,8.0,99,0.00,,,-99.99,0.000000,,2013-12-16 12:12:00,
2013-12-16 04:21:00,31.0,31.0,-100.00,South,181,1.0,8.0,99,0.00,,,-99.99,0.000000,,2013-12-16 12:21:00,
2013-12-16 04:32:00,31.0,31.0,-100.00,South,181,1.0,8.0,99,0.00,,,-99.99,0.000000,,2013-12-16 12:32:00,
2013-12-16 05:11:00,31.0,31.0,-100.00,South,179,5.0,7.0,99,0.00,,,-99.99,0.000000,,2013-12-16 13:11:00,
2013-12-16 05:21:00,31.0,31.0,-100.00,South,179,5.0,7.0,99,0.00,,,-99.99,0.000000,,2013-12-16 13:21:00,
2013-12-16 05:32:00,31.0,31.0,-100.00,South,179,5.0,7.0,99,0.00,,,-99.99,0.000000,,2013-12-16 13:32:00,
2013-12-16 06:11:00,31.0,31.0,-100.00,South,181,3.0,8.0,99,0.00,,,-99.99,0.000000,,2013-12-16 14:11:00,
2013-12-16 06:22:00,31.0,31.0,-100.00,South,181,3.0,8.0,99,0.00,,,-99.99,0.000000,,2013-12-16 14:22:00,
2013-12-16 06:32:00,31.0,31.0,-100.00,South,181,3.0,8.0,99,0.00,,,-99.99,0.000000,,2013-12-16 14:32:00,
2013-12-16 07:11:00,31.0,31.0,-100.00,South,181,2.0,7.0,100,0.00,,,0.00,0.000000,,2013-12-16 15:11:00,
2013-12-16 07:21:00,31.0,31.0,-100.00,South,181,2.0,7.0,100,0.00,,,0.00,0.000000,,2013-12-16 15:21:00,
2013-12-16 07:33:00,31.0,31.0,-100.00,South,181,2.0,7.0,100,0.00,,,0.00,0.000000,,2013-12-16 15:33:00,
2013-12-16 08:13:00,31.0,31.0,-100.00,South,181,2.0,5.0,100,0.00,,,0.00,0.000000,,2013-12-16 16:13:00,
2013-12-16 08:23:00,31.0,31.0,-100.00,South,181,2.0,5.0,100,0.00,,,0.00,0.000000,,2013-12-16 16:23:00,
2013-12-16 08:33:00,31.0,31.0,-100.00,South,181,2.0,5.0,100,0.00,,,0.00,0.000000,,2013-12-16 16:33:00,
2013-12-16 09:11:00,32.0,32.0,-100.00,South,181,2.0,6.0,100,0.00,,,0.00,9.000000,,2013-12-16 17:11:00,
2013-12-16 09:22:00,32.0,32.0,-100.00,South,181,2.0,6.0,100,0.00,,,0.00,9.000000,,2013-12-16 17:22:00,
2013-12-16 09:32:00,32.0,32.0,-100.00,South,181,2.0,6.0,100,0.00,,,0.00,9.000000,,2013-12-16 17:32:00,
2013-12-16 10:12:00,32.0,32.0,-100.00,South,179,4.0,7.0,100,0.00,,,0.00,52.000000,,2013-12-16 18:12:00,
2013-12-16 10:22:00,32.0,32.0,-100.00,South,179,4.0,7.0,100,0.00,,,0.00,52.000000,,2013-12-16 18:22:00,
2013-12-16 10:32:00,32.0,32.0,-100.00,South,179,4.0,7.0,100,0.00,,,0.00,52.000000,,2013-12-16 18:32:00,
2013-12-16 11:11:00,32.0,32.0,-100.00,South,179,5.0,7.0,100,0.00,,,0.00,52.000000,,2013-12-16 19:11:00,
2013-12-16 11:21:00,32.0,32.0,-100.00,South,179,5.0,7.0,100,0.00,,,0.00,52.000000,,2013-12-16 19:21:00,
2013-12-16 11:32:00,32.0,32.0,-100.00,South,179,5.0,7.0,100,0.00,,,0.00,52.000000,,2013-12-16 19:32:00,
2013-12-16 12:11:00,33.0,33.0,-100.00,South,179,3.0,7.0,100,0.00,,,0.00,76.000000,,2013-12-16 20:11:00,
2013-12-16 12:21:00,33.0,33.0,-100.00,South,179,3.0,7.0,100,0.00,,,0.00,76.000000,,2013-12-16 20:21:00,
2013-12-16 12:31:00,33.0,33.0,-100.00,South,179,3.0,7.0,100,0.00,,,0.00,76.000000,,2013-12-16 20:31:00,
2013-12-16 13:11:00,33.0,33.0,-100.00,South,181,1.0,6.0,100,0.00,,,-99.99,88.000000,,2013-12-16 21:11:00,
2013-12-16 13:21:00,33.0,33.0,-100.00,South,181,1.0,6.0,100,0.00,,,-99.99,88.000000,,2013-12-16 21:21:00,
2013-12-16 13:32:00,33.0,33.0,-100.00,South,181,1.0,6.0,100,0.00,,,-99.99,88.000000,,2013-12-16 21:32:00,
2013-12-16 14:13:00,34.0,34.0,-100.00,North,-999,0.0,4.0,99,0.00,,,0.00,86.000000,,2013-12-16 22:13:00,
2013-12-16 14:22:00,34.0,34.0,-100.00,North,-999,0.0,4.0,99,0.00,,,0.00,86.000000,,2013-12-16 22:22:00,
2013-12-16 14:33:00,34.0,34.0,-100.00,North,-999,0.0,4.0,99,0.00,,,0.00,86.000000,,2013-12-16 22:33:00,
2013-12-16 15:12:00,34.0,34.0,-100.00,South,182,1.0,12.0,99,0.00,,,0.00,84.000000,,2013-12-16 23:12:00,
2013-12-16 15:22:00,34.0,34.0,-100.00,South,182,1.0,12.0,99,0.00,,,0.00,84.000000,,2013-12-16 23:22:00,
2013-12-16 15:33:00,34.0,34.0,-100.00,South,182,1.0,12.0,99,0.00,,,0.00,84.000000,,2013-12-16 23:33:00,
2013-12-16 16:11:00,35.0,34.0,-100.00,South,181,1.0,6.0,97,0.00,,,0.00,85.000000,,2013-12-17 00:11:00,
2013-12-16 16:21:00,35.0,34.0,-100.00,South,181,1.0,6.0,97,0.00,,,0.00,85.000000,,2013-12-17 00:21:00,
2013-12-16 16:31:00,35.0,34.0,-100.00,South,181,1.0,6.0,97,0.00,,,0.00,85.000000,,2013-12-17 00:31:00,
2013-12-16 17:11:00,35.0,33.0,-100.00,North,-999,0.0,12.0,94,0.00,,,0.00,7.000000,,2013-12-17 01:11:00,
2013-12-16 17:22:00,35.0,33.0,-100.00,North,-999,0.0,12.0,94,0.00,,,0.00,7.000000,,2013-12-17 01:22:00,
2013-12-16 17:32:00,35.0,33.0,-100.00,North,-999,0.0,12.0,94,0.00,,,0.00,7.000000,,2013-12-17 01:32:00,
2013-12-16 18:11:00,32.0,31.0,-100.00,South,182,5.0,8.0,96,0.00,,,0.00,0.000000,,2013-12-17 02:11:00,
2013-12-16 18:22:00,32.0,31.0,-100.00,South,182,5.0,8.0,96,0.00,,,0.00,0.000000,,2013-12-17 02:22:00,
2013-12-16 18:32:00,32.0,31.0,-100.00,South,182,5.0,8.0,96,0.00,,,0.00,0.000000,,2013-12-17 02:32:00,
2013-12-16 19:11:00,32.0,31.0,-100.00,South,182,3.0,8.0,96,0.00,,,0.00,0.000000,,2013-12-17 03:11:00,
2013-12-16 19:22:00,32.0,31.0,-100.00,South,182,3.0,8.0,96,0.00,,,0.00,0.000000,,2013-12-17 03:22:00,
2013-12-16 19:33:00,32.0,31.0,-100.00,South,182,3.0,8.0,96,0.00,,,0.00,0.000000,,2013-12-17 03:33:00,
2013-12-16 20:13:00,34.0,33.0,-100.00,North,-999,0.0,5.0,96,0.00,,,0.00,0.000000,,2013-12-17 04:13:00,
2013-12-16 20:23:00,34.0,33.0,-100.00,North,-999,0.0,5.0,96,0.00,,,0.00,0.000000,,2013-12-17 04:23:00,
2013-12-16 20:33:00,34.0,33.0,-100.00,North,-999,0.0,5.0,96,0.00,,,0.00,0.000000,,2013-12-17 04:33:00,
2013-12-16 21:11:00,34.0,33.0,-100.00,North,-999,0.0,9.0,96,0.00,,,0.00,0.000000,,2013-12-17 05:11:00,
2013-12-16 21:22:00,34.0,33.0,-100.00,North,-999,0.0,9.0,96,0.00,,,0.00,0.000000,,2013-12-17 05:22:00,
2013-12-16 21:33:00,34.0,33.0,-100.00,North,-999,0.0,9.0,96,0.00,,,0.00,0.000000,,2013-12-17 05:33:00,
2013-12-16 22:11:00,32.0,31.0,-100.00,South,182,1.0,4.0,97,0.00,,,-99.99,0.000000,,2013-12-17 06:11:00,
2013-12-16 22:22:00,32.0,31.0,-100.00,South,182,1.0,4.0,97,0.00,,,-99.99,0.000000,,2013-12-17 06:22:00,
2013-12-16 22:31:00,32.0,31.0,-100.00,South,182,1.0,4.0,97,0.00,,,-99.99,0.000000,,2013-12-17 06:31:00,
2013-12-16 23:11:00,36.0,32.0,-100.00,South,182,14.0,21.0,85,0.00,,,0.00,0.000000,,2013-12-17 07:11:00,
2013-12-16 23:21:00,36.0,32.0,-100.00,South,182,14.0,21.0,85,0.00,,,0.00,0.000000,,2013-12-17 07:21:00,
2013-12-16 23:32:00,36.0,32.0,-100.00,South,182,14.0,21.0,85,0.00,,,0.00,0.000000,,2013-12-17 07:32:00,